Location: Wellington
(41.3000°S, 174.7830°E)
Time: 21:55:46
(UTC+13:00)

CENTAUR R/B - Pass Details

Date: 24 January 2019
Orbit: 780 x 1408 km, 63.4° (Epoch: 08 October)

Event Time Altitude Azimuth Distance (km) Brightness Sun altitude
Exits shadow 23:29:06 31° 70° (ENE) 2,046 3.7 -23.0°
Drops below altitude 10° 23:35:14 10° 126° (SE) 3,061 5.1 -23.6°
Sets 23:38:05 0° 135° (SE) 3,929 5.9 -23.9°
